Find Starlink 11668

NORAD ID: 63557 Int'l Des: 2025-075 Owner: SPXS Country: US Constellation: starlink operational
LEOCIRCULAR

当前视图

正在加载3D地球...

About Starlink 11668

Starlink 11668 (NORAD 63557) is a starlink constellation satellite (v2 mini d2c) launched Apr 13, 2025 by SPXS of US. It operates in LEO, CIRCULAR orbit with a mass of 960.00 kg.

关于 Starlink 11668

正在加载描述...

即将过境

Passes for default location (London). Set your location on the main map for personalized predictions.

高度历史

Loading altitude history...

两行轨道根数

1 63557U 25075K 26168.25163774 .00176933 00000-0 13522-2 0 9997
2 63557 43.0009 273.9859 0002495 271.7807 88.2775 15.70857438 68907
Epoch: Jun 17, 2026 • Age: 41 hours

当前状态

高度 365.2 km
速度 7.69 km/s
星下点 -39.44°S, 103.5°W
发射日期 Apr 13, 2025
运行时间 1.1 years
类型 internet

技术详情

分类 Payload
质量 960.00 kg
干质量 910.00 kg
总质量 960.00 kg
长度 0.30 m
直径 4.10 m
跨度 29.00 m
形状 Box + pan
制造商 SPXS
平台类型 Starlink V2MD
阶段状态 In Orbit
所有者/国家 SPXS/US

Most Searched